ONEWEB-0333 (49199 NORAD) Tracking and Keplerian Element Data

This shows tracking and keplerian element data for the satellite.

Feedback or suggestion? Click here.




ElementValue
Catalog49199
NameONEWEB-0333
Epoch Orbit779
Epoch Day300.83334491
Epoch Year2021
RAAN313.0066
Inclination87.201
Eccentricity0.0019951
Argument of Perigee144.0531
Mean Anonmoly204.8903
Mean Motion14.87051434
Decay Rate0.00028321
L11 49199U 21083P 21300.83334491 .00028321 00000-0 31365-2 0 9993
L22 49199 87.2010 313.0066 0019951 144.0531 204.8903 14.87051434 7790

Live tracking and technical data element details for ONEWEB-0333 (NORAD 49199). ONEWEB-0333 can be tracked NOW for your location showing map with azimuth and elevation plus other details from your city location.

Track the satellite on the map from your city or location and see movement details for azimuth, elevation, latitude, longitude, range, height, and movement on the map or in text.







IsCatalogInMostPopularTable: catalog: 49199, numindb: 11
Update: records affected: 1



GetName: 49199 ONEWEB-0333

Hit Count: updated at: Thu, 28 Oct 2021 11:59:06 GMT